STARLINK-3786, 52263

Orbit data source: Space-Track

STARLINK-3786, 52263 is a payload satellite owned by SpaceX/Seattle (US) in LEO that was launched on Thu, 21 Apr 2022 UTC via an FALCON 9 launch vehicle from the Air Force Eastern Test Range (AFETR). Payload-class satellites include a variety of spacecraft equipped with specific instruments for various scientific and technological missions. These include communications satellites like Starlink; space stations such as the ISS; scientific satellites like the Hubble; Earth observation satellites from companies like Planet Labs, Umbra, and HawkEye 360; GPS; miniature CubeSats for education and research; and military/defense satellites.

Loading next visibility...
Identifier
52263, 2022-041C
Orbit
LEO
Country
Flag of USUS
Related business
Manufacturer
SpaceX/Seattle
Mission
Operational Commercial Communications
Bus & Motor
STARLINK, Unknown motor
Mass
297 kg wet, ~275 kg dry
Launch date (UTC)
2022-04-21 (4 years ago)
Launch vehicle
FALCON 9
Launch site
Air Force Eastern Test Range (AFETR)
Object type
Payload
Rocket body
Debris
Shape & HBR
Box + 1 Pan, 10.1 m
Radar Cross Section
11.087 m², Large (>1 m²)

Expand to show TLE details & history
Last TLE update: 12 hours ago

TLE from 12 hours ago
0 STARLINK-3786
1 52263U 22041C   26236.66668981  .01110521  00000-0  31958-1 0  9994
2 52263  53.1613  72.9062 0000763 127.6656 172.0824 15.32385076  5711
Epoch: 2026-08-24T16:00Z
TLE epoch observation values (Epoch: 2026-08-24T16:00:01.999Z)
Latitude
-44.2093°
Longitude
173.50653°
Altitude
484.12 km
Speed
7.623 km/s
True Right ascension
01h 45m 50s
True Declination
-44° 01' 50"
Sunlit
Object was in full shadow at epoch
Visualization orbit readout
Latitude
Unknown
Longitude
Unknown
Altitude
Unknown
Speed
Unknown
Apparent Right ascension
Unknown
Apparent Declination
Unknown
Sunlit
N/A
Visualization observer readout
Local Sidereal Time
19:31:32
Azimuth
Unknown
Elevation
Unknown
Doppler factor
Unknown
Orbital elements
Apogee altitude
469.477 km
Perigee altitude
468.433 km
Semi-major axis
6,847.092 km
Eccentricity
0.00008
Inclination
53.1613°
RAAN
72.9062°
Arg. of periapsis
127.6656°
True anomaly
172.0836°
Mean anomaly
172.0824°
Eccentric anomaly
172.083°
Mean motion
3.83075 °/min
Orbital period
93.98 mins
BSTAR
0.031958
Loading maneuver chart data...
Computing Atmospheric mass density...
Loading historical data...
Loading historical data...
Loading historical data...
Loading historical data...
Loading historical data...
Loading historical data...
Loading historical data...

Documentation

Showing up to 5 results
|